User: anonymous   Login
Location: Unspecified
(0.0000°N, 0.0000°E)
Time: 06:57:39
(UTC+00:00)
Language:

AAUSAT3 - Orbit

View from above orbital plane
View from above orbital plane
View from above satellite
View from above satellite

Ground track
Ground track

The orbit data is extracted from the following two-line orbital elements,

1 39087U 13009B   17202.80169255 +.00000095 +00000-0 +48410-4 0  9993
2 39087 098.5491 047.7537 0012087 193.1026 166.9850 14.35517441230485
Epoch (UTC): 21 July 2017 19:14:26
Eccentricity: 0.0012087
inclination: 98.5491°
perigee height: 765 km
apogee height: 782 km
right ascension of ascending node: 47.7537°
argument of perigee: 193.1026°
revolutions per day: 14.35517441
mean anomaly at epoch: 166.9850°
orbit number at epoch: 23048

The dashed part of the orbit path shows where the satellite is in the earth's shadow,  

DLR